Regional Weather Roundup
Issued by NWS

Home | Current Version | Previous Version | Graphics & Text | Print | Product List | Glossary Off
Versions: 1 2 3 4 5 6 7 8 9 10 11 12 13 14 15 16 17 18 19 20 21 22 23 24 25 26 27 28 29 30 31 32 33 34 35 36 37 38 39 40 41 42 43 44 45 46 47 48 49 50

000
ASUS43 KLMK 180410
RWRKY
KENTUCKY REGIONAL WEATHER ROUNDUP
NATIONAL WEATHER SERVICE LOUISVILLE KY
1200 AM EDT WED OCT 18 2017

NOTE "FAIR" INDICATES FEW OR NO CLOUDS BELOW 12,000 FEET
WITH NO SIGNIFICANT WEATHER AND/OR OBSTRUCTIONS TO VISIBILITY.

KYZ001>023-026-027-061>063-070>075-180500-
WESTERN AND SOUTH CENTRAL KENTUCKY

CITY           SKY/WX    TMP DP  RH WIND       PRES   REMARKS
PADUCAH        CLEAR     45  41  86 CALM      30.24S
HENDERSON      CLEAR     46  43  89 CALM      30.26S
OWENSBORO      CLEAR     49  45  86 CALM      30.27S
HOPKINSVILLE   CLEAR     48  44  85 CALM      30.26S
BOWLING GREEN  CLEAR     47  45  93 CALM      30.28S
GLASGOW        CLEAR     44  44 100 CALM      30.28F
$$

KYZ024-025-028>034-038-045-046-053-180500-
NORTH CENTRAL KENTUCKY

CITY           SKY/WX    TMP DP  RH WIND       PRES   REMARKS
LOUISVILLE/SDF PTCLDY    52  47  83 SE7       30.27F
LOUISVILLE/LOU CLEAR     48  46  93 CALM      30.28F
FORT KNOX      CLEAR     45  44  94 CALM      30.26S
$$

KYZ035>037-039>044-047>052-055>060-089>105-180500-
NORTHEAST KENTUCKY

CITY           SKY/WX    TMP DP  RH WIND       PRES   REMARKS
LEXINGTON      CLEAR     47  41  80 SE6       30.29F
COVINGTON      CLEAR     48  42  80 S7        30.28S
FRANKFORT      CLEAR     44  40  85 CALM      30.28S
$$

KYZ054-064>069-076>088-106>120-180500-
SOUTHEAST KENTUCKY

CITY           SKY/WX    TMP DP  RH WIND       PRES   REMARKS
JACKSON        CLEAR     52  38  58 SE5       30.30F
LONDON         CLEAR     44  42  93 CALM      30.31S
SOMERSET       CLEAR     41  41 100 CALM      30.32F
MIDDLESBORO    CLEAR     43  42  99 CALM      30.33S
MONTICELLO     CLEAR     41  40  96 W9        30.32F
$$




USA.gov is the U.S. government's official web portal to all federal, state and local government web resources and services.